PROBA-1 1 26958U 01049B 26094.31879920 .00004026 00000+0 26274-3 0 9999 2 26958 97.9627 100.2801 0055711 14.4783 345.8024 15.07200171332491 CUTE-1 (CO-55) 1 27844U 03031E 26093.50286751 .00000567 00000+0 26456-3 0 9999 2 27844 98.6770 102.9944 0010387 47.9217 312.2844 14.24288225181048 CUBESAT XI-IV (CO-57) 1 27848U 03031J 26093.94602893 .00000464 00000+0 22289-3 0 9996 2 27848 98.6802 103.2044 0010511 63.1709 297.0543 14.23580366180818 APRIZESAT 4 1 35684U 09041D 26094.14663206 .00001555 00000+0 19193-3 0 9990 2 35684 98.1446 167.9887 0042935 200.1027 159.8497 14.83765167900382 APRIZESAT 3 1 35686U 09041F 26093.92794752 .00002583 00000+0 22777-3 0 9992 2 35686 98.1947 243.6492 0061167 312.9965 46.6138 14.95996298905277 PROBA-2 1 36037U 09059B 26094.09946261 .00000438 00000+0 11252-3 0 9998 2 36037 98.2444 278.4796 0013908 145.3283 214.8823 14.54809717870753 APRIZESAT 5 1 37792U 11044E 26094.22856072 .00001795 00000+0 23449-3 0 9997 2 37792 98.2422 25.1986 0051093 240.2567 119.3555 14.80934513787843 APRIZESAT 6 1 37793U 11044F 26094.24662611 .00001566 00000+0 22792-3 0 9990 2 37793 98.2401 3.2279 0042442 324.1013 187.7732 14.76813514786239 PROBA-V 1 39159U 13021A 26093.89803824 .00000141 00000+0 79921-4 0 9993 2 39159 98.3541 76.1930 0004198 7.2967 352.8273 14.23580926670540 APRIZESAT 7 1 39416U 13066A 26094.28884967 .00003291 00000+0 33098-3 0 9992 2 39416 97.7643 48.6119 0037582 96.0690 264.4813 14.91377084670213 APRIZESAT 8 1 39425U 13066K 26093.81371743 .00001941 00000+0 21614-3 0 9994 2 39425 97.8157 42.3592 0046265 168.8272 191.3983 14.87495296668610 BUGSAT-1 (TITA) 1 40014U 14033E 26094.27064866 .00008511 00000+0 45650-3 0 9997 2 40014 98.0412 182.5520 0029614 74.4580 285.9916 15.14856117644641 SAUDISAT 4 1 40016U 14033G 26093.92612497 .00001278 00000+0 17546-3 0 9995 2 40016 97.7465 242.6776 0043841 316.3908 43.3841 14.79437508635099 APRIZESAT 9 1 40018U 14033J 26094.29097768 .00001275 00000+0 19408-3 0 9992 2 40018 97.8934 229.3477 0067557 78.2219 282.6558 14.74130420632674 APRIZESAT 10 1 40019U 14033K 26094.24739324 .00001384 00000+0 22388-3 0 9991 2 40019 97.9526 222.9095 0079664 149.1060 211.4870 14.70806185631380 TECHDEMOSAT-1 (TDS-1) 1 40076U 14037H 26093.94059666 .00016664 00000+0 96943-3 0 9993 2 40076 98.3803 78.8794 0007388 145.6458 214.5249 15.12125253637002 TECHNOSAT 1 42829U 17042E 26094.03613089 .00006858 00000+0 49210-3 0 9995 2 42829 97.4201 254.5758 0017336 353.3194 6.7798 15.04510511475550 FLYING LAPTOP 1 42831U 17042G 26094.31711067 .00003613 00000+0 28863-3 0 9991 2 42831 97.4360 252.8659 0019782 15.9149 344.2693 15.00697073475377 HAWK-A 1 43765U 18099H 26094.09576984 .00015182 00000+0 62401-3 0 9993 2 43765 97.3996 147.3207 0035682 183.6663 176.4318 15.23673910401812 HAWK-B 1 43794U 18099AN 26094.09630387 .00013725 00000+0 59629-3 0 9992 2 43794 97.4043 146.8867 0032247 200.8362 159.1562 15.21935339401763 HAWK-C 1 43799U 18099AT 26094.10419963 .00017408 00000+0 64377-3 0 9992 2 43799 97.3970 147.8880 0041616 185.3618 174.7181 15.26931731402604 SALSAT 1 46495U 20068K 26093.94381268 .00015678 00000+0 56347-3 0 9999 2 46495 97.8863 92.5537 0009436 192.6370 167.4633 15.28700775304012 HAWK-2C 1 47502U 21006CT 26094.12448441 .00012834 00000+0 39487-3 0 9997 2 47502 97.2357 139.9296 0008883 105.1785 255.0441 15.33752140288141 HAWK-2A 1 47505U 21006CW 26094.12761804 .00012832 00000+0 39470-3 0 9991 2 47505 97.2401 140.5668 0008471 108.0519 252.1648 15.33764253288140 HAWK-2B 1 47508U 21006CZ 26094.12474036 .00015063 00000+0 46283-3 0 9991 2 47508 97.2276 139.0187 0009060 106.1503 254.0738 15.33756035288149 HAWK-3B 1 48931U 21059BE 26094.10094622 .00064111 00000+0 68237-3 0 9998 2 48931 97.6709 284.1279 0004960 232.0499 128.0311 15.63796070266257 HAWK-3C 1 48948U 21059BX 26094.10062510 .00063592 00000+0 67684-3 0 9994 2 48948 97.6847 289.6783 0005232 233.2852 126.7926 15.63796627266252 HAWK-3A 1 48957U 21059CG 26094.10051414 .00062128 00000+0 66163-3 0 9990 2 48957 97.6784 286.9446 0004944 232.9977 127.0829 15.63790042266252 HAWK-5C 1 52754U 22057Y 26093.93279367 .00031555 00000+0 58916-3 0 9995 2 52754 97.6497 249.0211 0004331 347.0267 13.0871 15.48712127214843 HAWK-5B 1 52756U 22057AA 26093.93262033 .00029881 00000+0 55812-3 0 9990 2 52756 97.6501 247.3621 0004199 340.6469 19.4621 15.48712141214841 HAWK-5A 1 52757U 22057AB 26093.93242344 .00030887 00000+0 57667-3 0 9992 2 52757 97.6501 248.1962 0004677 343.4028 16.7069 15.48715500214840 HAWK-6B 1 55324U 23011A 26094.26229082 .00009982 00000+0 43257-3 0 9999 2 55324 40.4994 63.0280 0004579 244.6308 115.4027 15.22256551176572 HAWK-6C 1 55326U 23011C 26094.19608743 .00010350 00000+0 44820-3 0 9996 2 55326 40.4988 60.2611 0004440 234.6469 125.3925 15.22257082176575 HAWK-6A 1 55327U 23011D 26094.26171655 .00010319 00000+0 44689-3 0 9990 2 55327 40.5000 61.4961 0004207 236.1615 123.8794 15.22257812176583 HAWK-7A 1 56191U 23054P 26094.25615022 .00013767 00000+0 52820-3 0 9993 2 56191 97.2796 343.4757 0001661 335.9513 24.1648 15.26593098165746 HAWK-7B 1 56193U 23054R 26094.25605480 .00010915 00000+0 41952-3 0 9998 2 56193 97.2821 341.7127 0001432 8.0979 352.0282 15.26590858165747 HAWK-7C 1 56200U 23054Y 26094.25594641 .00010866 00000+0 41768-3 0 9993 2 56200 97.2797 342.5051 0001081 346.1807 13.9403 15.26587957165743